Aalto 1
1 42775U 17036L 21364.60298250 .00003839 00000-0 16345-3 0 9995
2 42775 97.2231 43.7135 0012646 195.9504 164.1337 15.23494247251055
URSA MAIOR
1 42776U 17036M 21364.36974100 .00004704 00000-0 19751-3 0 9990
2 42776 97.2245 44.0780 0012420 195.9180 164.1669 15.23852636251048
Max Valier Sat
1 42778U 17036P 21364.55669551 .00004248 00000-0 17499-3 0 9994
2 42778 97.2314 46.5540 0011027 195.8479 164.2415 15.24571594251154
Pegasus
1 42784U 17036V 21364.37542051 .00006389 00000-0 25363-3 0 9993
2 42784 97.2263 46.9871 0010424 198.3942 161.6921 15.25631168251213
NUDATSat
1 42787U 17036Y 21364.61960896 .00011039 00000-0 40230-3 0 9992
2 42787 97.2295 50.3657 0009369 188.0371 172.0720 15.28306781251272
SUCHAI 1
1 42788U 17036Z 21364.58632718 .00006692 00000-0 25714-3 0 9997
2 42788 97.2271 48.4662 0010069 193.2648 166.8328 15.26702832251398
SKCUBE
1 42789U 17036AA 21364.13105642 .00007358 00000-0 28577-3 0 9990
2 42789 97.2266 47.6325 0009949 195.5662 164.5272 15.26315266251222
VZLUSAT 1
1 42790U 17036AB 21364.35658471 .00010440 00000-0 38137-3 0 9998
2 42790 97.2300 50.0948 0009334 187.9358 172.1736 15.28242987251385
VENTA 1
1 42791U 17036AC 21364.38716641 .00006331 00000-0 24767-3 0 9994
2 42791 97.2263 47.8581 0009569 195.2730 164.8221 15.26133746251250
Robusta 1B
1 42792U 17036AD 21364.58996092 .00006721 00000-0 25886-3 0 9993
2 42792 97.2266 48.5400 0009595 193.4935 166.6049 15.26627808251332
D-SAT
1 42794U 17036AF 21364.49862222 .00002040 00000-0 17974-3 0 9991
2 42794 97.4538 13.9145 0123313 290.8381 67.9668 14.91882599246281
TechnoSat
1 42829U 17042E 21364.57233769 .00000879 00000-0 92994-4 0 9998
2 42829 97.4400 223.3747 0013313 206.8780 153.1751 14.91455486242919
QIKCOM-1
1 42983U 98067NF 21364.52471271 .00029666 00000-0 21604-3 0 9996
2 42983 51.6351 339.4523 0003514 33.7109 326.4113 15.73047803238195
AO-91
1 43017U 17073E 21364.49661245 .00003490 00000-0 26959-3 0 9996
2 43017 97.6925 260.5652 0253667 20.7335 340.3948 14.80099359222117
PICSAT
1 43132U 18004X 21364.19667047 .00008005 00000-0 30161-3 0 9999
2 43132 97.3926 76.9387 0007345 231.2827 128.7756 15.27327009220540
AO-92
1 43137U 18004AC 21364.49620893 .00005583 00000-0 21715-3 0 9998
2 43137 97.3898 76.4402 0007051 233.3668 126.6922 15.26409099220558
TianYi 2
1 43155U 18008A 21364.45136748 .00004282 00000-0 24365-3 0 9998
2 43155 97.3790 63.3413 0017446 16.1525 77.7918 15.13241669217701
Zhou Enlai
1 43156U 18008B 21364.43897554 .00004828 00000-0 27721-3 0 9991
2 43156 97.3837 63.1746 0014632 17.5916 103.5071 15.12898459217638
TianYi 6
1 43158U 18008D 21364.11855206 .00003546 00000-0 20861-3 0 9990
2 43158 97.3774 61.1441 0014080 17.9900 37.7899 15.12199734217506
S-Net D
1 43186U 18014G 21364.51600258 .00000468 00000-0 45316-4 0 9990
2 43186 97.6690 268.4533 0011548 138.2806 221.9298 14.97304081213634
S-Net B
1 43187U 18014H 21364.38234470 .00000581 00000-0 54985-4 0 9993
2 43187 97.6686 268.2810 0011558 138.6596 221.5503 14.97303734213614
S-Net A
1 43188U 18014J 21364.51619563 .00000465 00000-0 45010-4 0 9999
2 43188 97.6689 268.4665 0011547 138.3343 221.8760 14.97302336213630
S-Net C
1 43189U 18014K 21364.51672684 .00000465 00000-0 45053-4 0 9990
2 43189 97.6684 268.4037 0011536 138.2894 221.9210 14.97301254212185
FMN 1
1 43192U 18015A 21364.53063314 .00014527 00000-0 49129-3 0 9992
2 43192 97.5122 141.5081 0012127 269.9658 154.3570 15.30662586217552
Shaonian Xing
1 43199U 18015H 21364.52970799 .00009640 00000-0 34058-3 0 9997
2 43199 97.4905 137.8467 0013539 281.1928 141.0889 15.29331982217598
SurfSat
1 43614U 18070B 21364.60540339 .00014456 00000-0 30356-3 0 9990
2 43614 93.0216 27.8207 0011193 332.8693 27.1978 15.45261754184924
CP-7 DAVE
1 43615U 18070C 21364.60201610 .00013972 00000-0 29770-3 0 9997
2 43615 93.0219 27.7430 0011510 333.1765 26.8896 15.44831826184907
ELFIN-B
1 43616U 18070D 21364.60153767 .00022292 00000-0 39950-3 0 9993
2 43616 93.0166 28.2656 0010108 327.3631 32.7003 15.49824589185094
ELFIN-A
1 43617U 18070E 21364.54760087 .00024695 00000-0 43013-3 0 9990
2 43617 93.0224 29.3032 0009252 324.1631 35.9008 15.50633630185113
CubeBel-1
1 43666U 18083E 21364.53104563 .00006175 00000-0 28592-3 0 9996
2 43666 97.4394 30.3553 0013403 198.5757 317.9893 15.20396806175794
Changshagaoxin
1 43669U 18083H 21364.54964153 .00005237 00000-0 25247-3 0 9991
2 43669 97.4322 26.8575 0009765 192.2946 319.0406 15.19104874175646
Ten-Koh
1 43677U 18084G 21364.34368033 .00000807 00000-0 88036-4 0 9998
2 43677 97.9424 128.1917 0017313 107.7850 252.5258 14.90645925172482
PO-101
1 43678U 18084H 21364.44481959 .00000483 00000-0 53517-4 0 9999
2 43678 97.9472 131.0518 0011120 119.5625 240.6717 14.91866635172658
IRVINE 01
1 43693U 18088D 21364.58936299 .00013451 00000-0 48097-3 0 9992
2 43693 85.0334 64.3374 0015715 28.0347 332.1741 15.28561056174361
QO-100
1 43700U 18090A 21364.50875178 .00000160 00000-0 00000-0 0 9996
2 43700 0.0172 344.6869 0001924 329.1499 354.2814 1.00271951 11330
Reaktor Hello World
1 43743U 18096AA 21364.21015766 .00007391 00000-0 25457-3 0 9995
2 43743 97.3711 80.2046 0015163 305.4673 54.5152 15.30218363172054
MinXSS-2
1 43758U 18099A 21364.51986012 .00001578 00000-0 14386-3 0 9998
2 43758 97.6469 71.4577 0016581 111.2590 249.0404 14.96422264167839
AO-95
1 43770U 18099N 21364.16434593 .00001129 00000-0 10646-3 0 9992
2 43770 97.6446 69.8247 0015647 120.1940 240.0834 14.95638937167702
RANGE-B
1 43772U 18099Q 21364.41585863 .00002762 00000-0 25048-3 0 9995
2 43772 97.6551 71.3938 0015692 107.5703 252.7234 14.96041906167756
RANGE-A
1 43773U 18099R 21364.18842137 .00001321 00000-0 12435-3 0 9996
2 43773 97.6373 68.9599 0014859 108.9376 251.3457 14.95445846167694
MOVE-II
1 43780U 18099Y 21364.50468390 .00002083 00000-0 18831-3 0 9997
2 43780 97.6475 70.9510 0014383 115.8416 244.4291 14.96435343167786
SNUSat 2
1 43782U 18099AA 21364.16672601 .00000939 00000-0 89004-4 0 9992
2 43782 97.6448 70.2362 0014004 106.9965 253.2792 14.95857261167720
SnugLite
1 43784U 18099AC 21364.42491084 .00001393 00000-0 12890-3 0 9990
2 43784 97.6411 70.1648 0016341 113.1378 247.1567 14.96008917167787
ITASat 1
1 43786U 18099AE 21364.18116535 .00001126 00000-0 10555-3 0 9990
2 43786 97.6466 70.6546 0016307 114.1713 246.1215 14.95888766167749
EAGLET 1
1 43790U 18099AJ 21364.43917043 .00000649 00000-0 62518-4 0 9992
2 43790 97.6460 71.3936 0014577 115.9581 244.3144 14.96200762167519
ESEO
1 43792U 18099AL 21364.39257473 .00000735 00000-0 70707-4 0 9998
2 43792 97.6416 70.7681 0014627 114.0996 246.1757 14.95872109167551
CSIM
1 43793U 18099AM 21364.41954583 .00003010 00000-0 26533-3 0 9994
2 43793 97.6483 71.5806 0014554 109.1241 251.1558 14.97108342167582
Astrocast 0.1
1 43798U 18099AS 21364.15442798 .00002693 00000-0 24140-3 0 9998
2 43798 97.6481 71.4066 0014023 97.8206 262.4608 14.96545305167783
JO-97
1 43803U 18099AX 21364.17612894 .00001351 00000-0 12462-3 0 9997
2 43803 97.6427 70.3868 0016175 113.5879 246.7043 14.96202942167752
Suomi 100
1 43804U 18099AY 21364.45383892 .00001574 00000-0 14449-3 0 9996
2 43804 97.6422 70.6058 0016350 113.2424 247.0521 14.96156021167807
Al Farabi 2
1 43805U 18099AZ 21364.35453795 .00002983 00000-0 26700-3 0 9994
2 43805 97.6442 70.8440 0016789 112.7676 247.5329 14.96478905167805
CHOMPTT
1 43855U 18104G 21364.53263163 .00005494 00000-0 21779-3 0 9995
2 43855 85.0360 163.4930 0017865 136.9346 223.3300 15.24995548168969
ISAT
1 43879U 18111D 21364.53715072 .00001716 00000-0 15386-3 0 9990
2 43879 97.6742 268.2199 0012864 160.8858 199.2845 14.97010209162383
UWE-4
1 43880U 18111E 21364.29479939 .00002463 00000-0 21749-3 0 9994
2 43880 97.6788 268.5767 0012540 159.6300 200.5425 14.97233343164386
Sparrow
1 43881U 18111F 21364.45768128 .00001513 00000-0 13528-3 0 9995
2 43881 97.6791 268.9123 0012400 159.4259 200.7465 14.97306144164417
Lume 1
1 43908U 18111AJ 21364.49836902 .00006550 00000-0 24561-3 0 9990
2 43908 97.2126 252.7806 0018635 320.2069 39.7803 15.27409294167588
FO-98
1 43933U 19003B 21364.05327942 .00058926 00000-0 16515-2 0 9993
2 43933 97.1624 38.8854 0014030 58.4518 301.8095 15.36299754164028
FO-99
1 43937U 19003F 21364.60815201 .00006015 00000-0 22713-3 0 9998
2 43937 97.1541 39.8048 0023442 39.9495 320.3464 15.27105981164182
MYSat 1
1 44045U 18092F 21364.52935696 .00019101 00000-0 42656-3 0 9996
2 44045 51.6343 187.2692 0010015 196.3948 163.6716 15.43505338161705
AstroCast 0.2
1 44083U 19018F 21364.48421965 .00005073 00000-0 21287-3 0 9991
2 44083 97.3495 61.7414 0012464 11.7159 348.4366 15.23850077152732
AISTechSat 3
1 44103U 19018AB 21364.53893861 .00005371 00000-0 21733-3 0 9995
2 44103 97.3351 62.2385 0013384 19.8153 87.6431 15.25037690152885
AISat 1
1 44104U 19018AC 21364.23007089 .00004611 00000-0 14001-3 0 9998
2 44104 97.4114 81.9570 0055798 19.6431 340.6943 15.33053997153653
Prox-1
1 44339U 19036A 21364.61696397 .00002114 00000-0 44232-3 0 9991
2 44339 23.9989 178.3634 0010619 168.0391 192.0354 14.54037946133747
Oculus-ASR
1 44348U 19036K 21364.16950422 .00026136 00000-0 32135-3 0 9992
2 44348 28.5115 264.6859 0298965 236.6123 120.5530 15.20274367138633
Armadillo
1 44352U 19036P 21363.97973010 .00042869 -60017-5 43104-3 0 9992
2 44352 28.5281 225.4079 0249466 298.1790 59.3820 15.33322452138966
NO-104
1 44354U 19036R 21364.04648326 .00025687 00000-0 30507-3 0 9994
2 44354 28.5286 255.5845 0292919 248.8318 108.0741 15.22167065138719
NO-103
1 44355U 19036S 21364.61769356 .00091641 -42161-5 69260-3 0 9996
2 44355 28.5217 164.4336 0190174 37.2255 324.1366 15.50520838139679
Move-IIb
1 44398U 19038N 21364.57698067 .00007630 00000-0 40920-3 0 9997
2 44398 97.6040 328.1426 0023902 356.7131 3.3928 15.15009118137449
SONATE
1 44400U 19038Q 21364.56702908 .00003468 00000-0 19813-3 0 9992
2 44400 97.6151 327.7838 0024785 358.6124 1.5031 15.13137776137389
